Showing default

GAOFEN 1-04, 43262

Orbit data source: Space-Track

GAOFEN 1-04, 43262 is a payload satellite owned by GGKGJ (CN) in SSO that was launched on Sat, 31 Mar 2018 UTC via a CHANG ZHENG 4C launch vehicle from the Taiyaun Space Center, China (TSC). Payload-class satellites include a variety of spacecraft equipped with specific instruments for various scientific and technological missions. These include communications satellites like Starlink; space stations such as the ISS; scientific satellites like the Hubble; Earth observation satellites from companies like Planet Labs, Umbra, and HawkEye 360; GPS; miniature CubeSats for education and research; and military/defense satellites.

Loading next visibility...
Identifier
43262, 2018-031D
Orbit
SSO
Country
Flag of CNCN / PRC
Related business
Manufacturer
DFH
Mission
Operational Civil Imaging
Bus & Motor
CAST-2000, AOCS
Mass
805 kg wet, ~700 kg dry
Launch date (UTC)
2018-03-31 (8 years ago)
Launch vehicle
CHANG ZHENG 4C
Launch site
Taiyaun Space Center, China (TSC)
Object type
Payload
Rocket body
Debris
Shape & HBR
Box + 2 Pan, 2.0 m
Radar Cross Section
4.991 m², Large (>1 m²)

Expand to show TLE details & history
Last TLE update: 3 hours ago

TLE from 3 hours ago
0 GAOFEN 1-04
1 43262U 18031D   26035.21805632  .00001361  00000-0  20303-3 0  9995
2 43262  98.0719  98.0508 0001748 115.5801 244.5590 14.76451864423064
Epoch: 2026-02-04T05:14Z
TLE epoch observation values (Epoch: 2026-02-04T05:14:00.066Z)
Latitude
0.00007°
Longitude
-114.83728°
Altitude
644.085 km
Speed
7.536 km/s
True Right ascension
06h 32m 12s
True Declination
0° 00' 00"
Sunlit
Object was in full shadow at epoch
Visualization orbit readout
Latitude
Unknown
Longitude
Unknown
Altitude
Unknown
Speed
Unknown
Apparent Right ascension
Unknown
Apparent Declination
Unknown
Sunlit
N/A
Visualization observer readout
Local Sidereal Time
10:05:24
Azimuth
Unknown
Elevation
Unknown
Doppler factor
Unknown
Orbital elements
Apogee altitude
638.826 km
Perigee altitude
636.373 km
Semi-major axis
7,015.737 km
Eccentricity
0.00017
Inclination
98.0719°
RAAN
98.0508°
Arg. of periapsis
115.5801°
True anomaly
244.54091°
Mean anomaly
244.559°
Eccentric anomaly
244.54996°
Mean motion
3.69346 °/min
Orbital period
97.47 mins
BSTAR
0.00020303
Loading maneuver chart data...
Computing Atmospheric mass density...
Loading historical data...
Loading historical data...
Loading historical data...
Loading historical data...
Loading historical data...
Loading historical data...
Loading historical data...

Documentation

Showing up to 5 results
|